Hourly Data Report for May 22, 2006

TORONTO CITY
ONTARIO

43°40'00.000" N
79°24'00.000" W
112.50 m
6158355
71508
XTO

Download Data

Hourly Data (May 2006)
Hourly Data Report for May 22, 2006
TIME
LST
Temp Definition
°C
Dew Point Definition
°C
Rel Hum Definition
%
Precip. Amount Definition
mm

Wind Dir Definition
10's deg

Wind Spd Definition
km/h
Visibility Definition
km
Stn Press Definition
kPa
Hmdx Definition


Wind Chill Definition


Weather Definition


00:00 6.2 3.9 85   LegendMM LegendMM   99.95     LegendNANA
01:00 6.0 3.1 82   LegendMM LegendMM   100.00     LegendNANA
02:00 5.7 2.5 80   LegendMM LegendMM   100.01     LegendNANA
03:00 5.2 2.7 84   LegendMM LegendMM   100.06     LegendNANA
04:00 4.9 2.6 85   LegendMM LegendMM   100.10     LegendNANA
05:00 4.8 2.3 84   LegendMM LegendMM   100.18     LegendNANA
06:00 5.5 2.6 82   LegendMM LegendMM   100.25     LegendNANA
07:00 6.5 2.6 76   LegendMM LegendMM   100.27     LegendNANA
08:00 6.8 2.2 72   LegendMM LegendMM   100.32     LegendNANA
09:00 7.8 2.8 71   LegendMM LegendMM   100.31     LegendNANA
10:00 8.8 2.6 65   LegendMM LegendMM   100.29     LegendNANA
11:00 10.0 3.2 63   LegendMM LegendMM   100.27     LegendNANA
12:00 9.3 2.1 61   LegendMM LegendMM   100.29     LegendNANA
13:00 9.9 1.2 55   LegendMM LegendMM   100.29     LegendNANA
14:00 9.9 0.2 51   LegendMM LegendMM   100.31     LegendNANA
15:00 9.2 -0.4 51   LegendMM LegendMM   100.37     LegendNANA
16:00 9.6 -1.2 47   LegendMM LegendMM   100.36     LegendNANA
17:00 9.4 -0.7 49   LegendMM LegendMM   100.40     LegendNANA
18:00 8.7 -0.7 52   LegendMM LegendMM   100.42     LegendNANA
19:00 8.8 -1.4 49   LegendMM LegendMM   100.44     LegendNANA
20:00 8.2 -1.0 52   LegendMM LegendMM   100.46     LegendNANA
21:00 7.5 0.9 63   LegendMM LegendMM   100.53     LegendNANA
22:00 6.9 1.3 67   LegendMM LegendMM   100.51     LegendNANA
23:00 6.4 1.1 69   LegendMM LegendMM   100.50     LegendNANA

Notes on Data Quality.

Legend

  • E = Estimated
  • M = Missing
  • NA = Not Available*
  • [empty] = Indicates an unobserved value
Date modified: